Temperature
19 17 17 18 18 19 19 18 18 18 19 19 18 17 17 18 18 18 18 19 19 19 20 19 19 19 18 18 18 18 17 17 17 16 16 16 16 16 16 16 16 15 15 15
17 17 18 18 18 19 18 18 18 18 19 19 17 17 17 17 17 18 18 18 19 19 19 19 19 19 18 18 18 18 17 17 17 17 16 16 16 16 16 16 16 15 15 15
18 18 19 19 19 18 18 18 18 18 18 18 18 17 17 17 18 18 18 18 19 19 19 19 19 18 18 18 18 18 18 17 17 17 16 16 16 16 16 16 16 15 15 15
18 18 19 19 19 18 18 19 19 18 17 16 17 16 16 16 16 16 17 18 18 19 19 19 19 19 18 18 18 18 17 17 17 17 16 16 16 16 16 16 16 15 15 15
18 18 19 19 19 18 18 18 18 18 17 16 16 16 15 15 16 16 16 17 18 18 19 19 19 19 19 18 18 18 17 17 17 17 16 16 16 16 16 16 16 15 15 15
17 18 18 18 19 19 18 17 16 15 15 15 16 15 15 15 16 16 16 17 18 18 18 19 19 19 19 18 18 18 17 17 17 17 16 16 16 16 16 16 15 15 15 15
17 18 18 18 18 18 17 16 15 16 14 15 15 15 15 16 16 16 17 17 18 18 18 18 18 18 18 18 18 18 17 17 17 17 16 16 16 16 16 16 15 15 15 15
16 16 17 17 17 17 16 16 15 16 15 15 15 15 15 16 17 17 18 18 18 18 18 18 18 18 18 18 18 18 17 17 17 17 16 16 16 16 16 16 15 15 15 15
15 16 17 17 17 17 16 15 15 14 15 15 14 15 16 16 16 16 17 17 18 18 18 18 18 18 18 18 18 18 18 17 17 17 16 16 16 16 16 16 15 15 15 15
15 15 16 16 17 16 16 14 13 14 14 14 15 15 15 16 16 15 15 16 17 18 18 18 18 18 18 18 17 17 17 17 17 17 17 16 16 16 16 15 15 15 15 15
14 14 15 15 16 15 15 14 13 12 13 13 14 14 16 15 15 15 15 17 17 17 17 17 17 17 17 17 17 17 17 17 17 17 16 16 16 16 15 15 15 15 15 15
13 12 13 14 15 15 15 14 13 13 13 12 13 14 16 15 15 15 16 16 17 17 17 17 17 17 17 17 17 17 17 17 17 16 16 16 16 16 16 16 16 16 15 15
13 12 13 14 14 14 15 14 13 12 11 11 12 14 15 15 15 16 16 16 16 16 17 17 17 17 17 16 17 17 16 16 16 16 16 16 16 15 15 15 16 15 15 15
13 12 13 14 14 14 14 14 13 12 12 11 12 13 14 15 14 15 16 16 16 16 16 16 16 16 16 16 16 16 16 16 16 16 16 16 15 15 15 15 15 15 15 15
12 12 12 13 14 14 14 14 13 13 12 12 13 13 14 14 14 15 16 16 16 16 16 16 16 16 16 16 16 16 16 16 16 16 16 15 15 15 15 15 15 15 15 15
11 12 12 13 13 13 14 14 14 13 13 13 13 13 14 14 15 15 15 15 16 16 16 16 16 16 16 16 16 16 16 16 16 16 16 15 15 15 15 15 15 15 15 15
10 11 11 11 12 13 13 14 13 13 13 13 13 13 13 13 14 15 15 15 16 16 16 16 16 16 16 16 16 16 16 16 15 15 15 15 15 15 15 15 15 15 15 15
10 10 9 10 12 12 13 14 14 14 13 13 13 13 13 14 15 15 15 15 15 16 16 15 15 16 16 15 15 16 15 15 15 15 15 15 15 15 15 15 15 15 15 15
10 10 9 9 11 11 13 13 13 13 13 13 13 13 14 14 14 14 15 15 15 15 15 15 15 15 15 15 15 15 15 15 15 15 15 15 15 15 15 15 15 15 15 15
9 9 9 9 11 11 13 14 14 14 13 13 13 13 13 13 12 13 15 15 15 15 15 15 15 15 15 15 15 15 15 15 15 15 15 15 15 14 15 15 14 14 14 14
9 9 9 9 10 11 12 13 14 13 13 13 13 13 13 12 13 14 14 14 14 15 15 15 15 15 15 15 15 15 15 15 15 14 14 14 14 14 14 14 14 14 14 14
9 9 8 8 10 11 13 12 12 12 13 13 13 13 13 13 13 14 14 14 14 14 14 14 14 14 14 14 14 14 14 15 14 14 14 14 14 14 14 14 14 14 14 14
9 9 8 9 10 12 12 12 13 13 13 13 13 13 13 13 13 13 13 14 14 14 14 14 14 14 14 14 14 14 14 14 14 14 14 14 14 14 14 14 14 14 14 14
8 9 8 9 9 11 12 13 13 13 13 13 13 13 12 12 13 13 13 13 13 13 13 13 13 14 14 14 14 14 14 14 14 14 14 14 14 14 14 14 14 14 14 13
8 8 8 8 9 10 12 12 12 12 13 12 12 12 12 12 12 12 12 13 13 13 13 13 13 13 14 14 14 14 14 13 13 13 14 14 14 14 13 13 13 13 13 13
7 8 8 9 10 10 11 12 12 12 12 12 12 12 12 12 12 12 12 12 12 12 12 12 13 13 13 13 13 13 13 13 13 13 13 13 13 13 13 13 13 13 13 13
Wind_Speed
4 4 1 4 5 4 3 3 2 3 2 1 3 4 5 2 1 2 3 4 4 6 5 3 4 3 3 3 3 4 5 4 4 3 2 2 1 1 1 1 3 5 5 6
5 1 4 2 2 3 3 2 2 3 1 1 1 3 4 2 3 4 5 5 5 5 3 2 3 4 4 5 4 5 5 5 5 4 3 2 2 1 1 1 3 3 4 5
4 3 1 3 2 2 2 4 4 3 2 2 2 4 3 3 2 2 2 3 4 6 5 4 4 4 4 5 6 6 5 5 5 5 4 3 3 3 2 1 1 1 3 5
1 3 1 2 1 3 3 4 4 3 2 2 1 3 5 4 4 3 3 3 4 5 4 4 4 4 5 6 5 5 5 4 4 5 6 6 4 3 2 2 2 2 3 4
2 1 1 1 2 3 3 0 2 2 3 1 2 1 6 3 4 5 5 4 4 4 4 5 5 5 5 4 4 4 4 4 4 5 6 6 4 3 2 2 3 2 2 3
2 1 1 2 1 1 2 5 5 5 4 1 3 3 5 3 4 5 5 4 4 3 3 3 3 2 2 2 2 3 4 4 4 5 6 6 6 5 4 3 3 2 1 2
4 3 3 1 3 4 5 5 3 4 3 4 2 2 6 5 4 4 4 4 3 2 2 2 2 2 2 3 3 3 4 4 4 5 5 6 6 6 6 5 4 3 2 1
1 4 3 1 2 2 1 6 5 3 4 4 2 4 6 4 3 3 2 1 1 1 2 2 3 4 4 4 4 5 5 5 5 5 5 5 5 5 4 4 4 5 4 4
2 4 4 1 0 5 4 2 4 5 1 1 4 5 6 2 3 3 2 2 1 2 3 3 3 2 4 5 5 6 6 5 6 6 5 5 5 5 4 4 4 4 3 4
4 2 4 3 4 4 4 5 4 4 3 3 5 4 4 4 4 4 3 2 3 3 2 3 2 3 3 4 5 5 5 6 6 6 6 5 5 5 5 4 4 4 4 3
3 3 3 2 1 1 3 3 4 3 3 4 3 5 4 4 3 3 4 4 3 3 3 3 3 3 2 2 3 4 4 4 4 5 5 5 5 5 5 4 4 4 4 4
2 4 1 4 3 2 3 4 5 3 2 3 3 6 3 2 3 3 4 4 3 3 3 3 2 2 2 1 2 4 4 4 4 4 5 6 5 5 5 4 4 4 4 4
3 4 2 4 4 3 2 2 3 4 3 4 4 6 4 4 4 3 4 4 3 3 3 3 2 2 2 2 2 3 3 4 3 4 4 4 5 5 5 5 4 4 5 4
4 3 5 7 6 3 3 2 3 4 3 4 7 8 9 7 6 6 5 5 4 3 3 3 3 3 3 3 3 3 3 3 4 4 5 4 5 6 6 5 4 4 5 5
4 2 3 5 5 4 5 6 5 6 7 8 8 9 10 8 7 7 6 4 4 4 4 4 4 4 3 3 3 3 3 3 4 5 5 5 4 4 5 5 5 5 5 5
3 3 1 3 3 4 5 7 7 7 7 8 8 10 8 6 4 5 5 5 5 6 6 6 5 4 4 4 4 3 3 4 5 5 5 4 4 4 5 5 5 5 5 4
2 3 2 3 4 3 6 7 7 5 5 7 9 10 6 5 6 7 7 6 7 7 6 5 5 5 5 6 6 6 5 5 5 5 5 4 4 5 6 6 6 5 5 5
5 4 3 1 1 5 7 4 5 5 6 7 7 7 6 7 6 5 5 6 6 6 5 5 5 5 5 5 5 4 4 5 5 5 4 4 5 5 5 6 6 5 5 5
6 6 4 3 3 7 6 3 3 4 6 5 6 6 5 3 3 5 4 4 6 6 6 5 5 5 5 5 5 4 4 5 5 5 5 5 5 5 6 7 6 5 5 5
4 4 4 3 4 6 6 3 2 2 5 4 3 4 3 1 2 6 6 5 5 5 4 4 3 3 3 4 4 5 5 6 6 6 6 5 6 6 6 7 6 4 5 5
2 2 4 5 5 8 7 4 2 3 6 4 3 3 3 4 7 7 6 6 5 5 4 3 3 3 4 4 5 6 6 7 7 5 4 5 5 6 5 5 5 5 5 5
6 4 5 4 5 8 3 2 4 5 3 4 4 4 4 6 6 6 5 6 5 5 4 3 3 4 4 4 6 6 7 7 5 5 5 4 5 4 4 5 5 5 6 6
5 7 5 7 7 5 3 4 5 3 4 4 4 6 6 6 7 6 6 6 5 5 5 4 4 4 3 4 6 7 6 5 5 5 5 4 4 4 5 5 6 5 5 5
4 3 3 5 7 7 7 6 6 5 5 5 5 6 6 7 7 7 7 6 5 5 5 4 3 4 4 4 5 6 5 5 6 6 5 5 5 4 4 4 5 6 6 5
5 3 3 6 8 7 7 6 6 6 5 6 6 6 6 6 7 7 7 7 6 6 5 5 4 4 5 5 5 4 4 5 6 6 5 5 5 5 5 4 4 6 6 7
5 6 6 8 8 6 8 7 6 7 8 8 7 7 7 6 7 7 7 7 6 6 5 5 5 4 4 4 4 4 5 6 7 6 5 5 4 4 5 4 3 3 4 6
Wind_Direction
46 73 173 215 195 184 168 172 234 259 262 145 211 258 283 281 233 246 246 238 237 243 248 225 206 189 171 169 172 172 166 162 145 134 136 134 148 165 121 109 120 131 139 141
49 318 247 198 169 149 159 170 253 295 321 159 226 279 284 265 235 234 235 234 232 246 266 230 201 185 191 194 187 180 178 174 169 165 159 145 137 142 139 101 96 119 135 142
159 243 213 144 127 143 192 192 209 226 10 35 54 326 303 295 289 287 277 247 229 224 226 219 207 205 202 202 201 197 192 182 174 160 130 102 80 69 69 83 113 114 134 136
222 283 111 114 170 159 240 226 197 184 126 299 53 286 291 290 314 309 299 295 256 238 222 210 206 211 213 215 205 196 190 184 174 158 153 152 152 158 186 177 158 127 120 122
261 294 101 157 236 174 216 36 136 150 150 344 353 220 292 325 312 297 284 277 273 246 227 217 213 213 217 206 196 189 180 179 172 168 166 161 159 165 149 131 127 117 99 106
279 297 160 223 322 126 126 71 57 51 76 298 253 194 282 262 256 282 281 282 276 263 246 235 228 219 207 181 177 177 174 182 171 167 169 170 168 160 148 147 147 138 113 106
347 345 349 56 49 25 68 83 34 3 11 261 260 200 254 258 251 250 258 263 268 263 247 244 232 227 214 188 183 179 178 185 177 170 176 181 179 172 174 172 166 162 163 173
68 308 313 0 158 186 144 134 154 201 231 279 307 239 258 276 283 287 281 268 297 271 249 240 230 225 219 209 193 182 182 190 183 179 184 184 178 174 180 177 173 181 189 197
155 268 312 328 54 130 120 139 161 137 171 268 281 290 305 331 354 1 3 2 303 266 255 251 242 248 230 215 204 195 188 190 194 190 183 182 180 177 181 180 177 184 189 187
151 247 306 318 52 41 121 135 95 116 155 257 293 285 268 293 306 319 320 296 287 298 298 294 269 259 253 223 210 197 191 193 197 191 188 186 185 184 180 173 180 183 185 177
120 151 321 20 102 194 72 83 94 113 149 164 258 274 241 248 261 262 266 275 274 279 285 289 284 280 273 226 194 192 195 187 188 192 189 182 182 182 175 180 190 187 184 176
112 120 260 271 274 220 148 148 137 152 218 180 196 265 287 277 286 285 289 291 297 295 288 284 286 306 315 265 208 197 195 192 192 188 183 185 180 173 177 185 186 175 177 175
118 111 63 346 342 13 86 131 134 128 132 169 193 259 306 337 325 299 286 285 286 295 301 303 304 292 277 262 225 210 204 199 188 167 171 178 173 172 183 188 175 168 169 166
119 129 172 201 225 226 254 226 170 144 179 212 224 257 292 307 308 303 295 288 289 280 276 282 280 270 269 264 229 210 216 200 181 166 168 179 188 184 186 180 171 170 168 166
105 157 218 239 248 227 232 240 211 205 206 211 236 241 264 274 273 279 284 285 290 284 277 266 257 256 258 264 243 219 215 201 182 169 173 190 193 184 176 171 170 168 167 171
103 153 203 277 273 260 257 251 230 231 228 235 247 257 263 270 275 277 273 265 266 266 265 266 259 249 245 249 238 215 211 199 178 176 184 178 172 173 175 172 166 161 158 158
147 143 137 268 301 326 266 244 220 219 219 208 228 246 261 268 262 258 259 255 256 261 260 258 254 240 234 236 232 214 204 186 178 183 181 171 170 174 177 171 161 162 163 159
162 147 150 211 22 240 247 246 202 214 237 225 233 248 243 251 259 269 259 245 257 262 262 261 258 252 240 230 227 206 182 177 181 183 179 174 173 177 173 166 170 174 166 166
173 154 147 157 220 270 286 258 189 205 259 238 241 258 265 287 320 303 282 264 258 259 255 253 252 253 242 225 212 180 177 178 179 189 193 185 175 174 173 177 181 177 169 171
109 129 142 161 201 239 246 253 235 143 265 272 248 262 279 355 289 277 292 290 285 283 273 268 269 257 245 233 196 178 187 185 195 201 198 185 177 178 184 188 182 173 171 173
112 127 174 195 224 258 257 272 109 168 247 288 271 272 272 245 244 261 285 290 284 281 277 263 262 244 238 222 188 189 197 205 207 197 182 180 180 181 179 176 173 164 164 158
182 181 192 177 212 250 261 133 182 226 274 294 291 276 270 278 281 279 282 288 289 292 291 276 261 263 248 207 192 198 211 215 195 181 175 179 180 179 165 161 168 164 161 161
201 194 194 200 220 250 259 235 255 252 270 282 278 281 281 289 290 292 289 284 282 283 284 282 269 271 255 213 201 208 220 200 179 175 178 177 174 169 161 162 167 165 166 168
258 212 203 251 265 274 282 284 284 272 270 280 278 280 284 286 288 292 290 285 282 281 280 282 280 267 251 231 217 217 211 187 173 178 183 179 173 172 166 163 164 169 176 177
231 201 228 257 274 289 278 266 273 283 290 297 299 288 274 275 284 289 291 288 286 284 277 268 256 253 252 238 224 215 195 179 176 178 180 182 178 178 175 171 175 179 189 187
211 206 214 244 247 244 265 270 276 285 287 283 287 292 286 277 282 290 289 285 282 281 281 277 270 257 252 241 230 220 197 184 177 179 182 186 182 180 178 174 175 188 186 191
Height
1512 1518 1523 1521 1520 1522 1524 1528 1530 1527 1521 1524 1526 1526 1523 1521 1522 1522 1521 1522 1522 1522 1524 1525 1526 1527 1528 1529 1531 1532 1533 1534 1535 1536 1537 1539 1540 1541 1542 1542 1543 1544 1544 1545
1519 1522 1518 1517 1518 1520 1524 1528 1530 1526 1521 1523 1527 1527 1523 1521 1521 1521 1520 1520 1520 1521 1522 1523 1524 1526 1527 1528 1529 1530 1532 1533 1534 1535 1537 1538 1539 1540 1541 1542 1543 1544 1545 1545
1520 1519 1515 1517 1519 1522 1524 1527 1528 1528 1525 1524 1527 1530 1525 1520 1520 1519 1519 1519 1519 1520 1520 1521 1522 1523 1525 1526 1528 1529 1530 1532 1533 1534 1536 1537 1538 1540 1541 1542 1543 1544 1545 1545
1518 1516 1515 1517 1520 1521 1527 1520 1522 1525 1531 1537 1532 1543 1529 1523 1521 1519 1518 1517 1517 1518 1519 1519 1520 1522 1523 1524 1526 1527 1529 1530 1532 1533 1534 1535 1536 1538 1539 1541 1542 1543 1544 1545
1519 1516 1517 1519 1518 1518 1521 1518 1521 1524 1531 1537 1536 1542 1535 1525 1523 1520 1517 1516 1516 1516 1517 1518 1519 1520 1521 1523 1524 1526 1527 1529 1530 1531 1533 1534 1535 1537 1539 1540 1542 1543 1544 1545
1517 1515 1516 1516 1515 1516 1517 1521 1526 1531 1537 1546 1539 1543 1539 1529 1523 1519 1516 1515 1515 1515 1516 1517 1518 1519 1520 1521 1522 1524 1525 1527 1528 1530 1531 1533 1534 1536 1538 1539 1541 1542 1543 1544
1522 1518 1516 1515 1518 1519 1521 1532 1545 1546 1552 1549 1537 1540 1536 1521 1517 1515 1514 1514 1514 1514 1515 1516 1516 1517 1518 1519 1520 1522 1523 1525 1527 1528 1529 1531 1533 1534 1536 1538 1539 1541 1542 1543
1531 1531 1520 1517 1520 1524 1525 1531 1547 1553 1554 1549 1538 1540 1528 1517 1515 1513 1513 1513 1513 1513 1514 1514 1515 1516 1517 1518 1519 1520 1521 1523 1525 1526 1528 1529 1531 1533 1535 1537 1538 1539 1541 1542
1532 1531 1520 1517 1517 1520 1527 1532 1532 1544 1546 1550 1544 1534 1523 1515 1514 1513 1512 1512 1512 1512 1513 1513 1514 1515 1515 1516 1517 1518 1520 1521 1523 1525 1526 1528 1529 1531 1533 1535 1537 1538 1540 1541
1526 1531 1523 1520 1518 1520 1523 1529 1538 1544 1552 1554 1545 1539 1533 1520 1516 1514 1513 1511 1511 1511 1512 1512 1513 1513 1514 1515 1515 1517 1518 1519 1521 1523 1524 1526 1528 1529 1531 1533 1535 1536 1538 1539
1524 1531 1530 1525 1525 1527 1528 1532 1537 1544 1546 1553 1553 1543 1520 1518 1515 1514 1512 1511 1511 1511 1511 1511 1512 1512 1512 1513 1513 1514 1515 1517 1519 1521 1522 1524 1526 1528 1529 1531 1533 1535 1536 1538
1526 1533 1537 1530 1523 1522 1524 1529 1536 1544 1548 1549 1550 1541 1515 1514 1513 1512 1512 1511 1511 1511 1511 1510 1510 1510 1510 1510 1511 1512 1513 1515 1516 1518 1520 1522 1524 1526 1528 1529 1531 1533 1535 1536
1525 1533 1541 1537 1533 1528 1527 1528 1532 1538 1545 1550 1550 1536 1514 1513 1512 1512 1511 1511 1510 1510 1509 1509 1509 1508 1508 1508 1509 1510 1511 1512 1514 1516 1518 1520 1522 1524 1526 1528 1529 1531 1533 1535
1522 1531 1537 1540 1535 1530 1529 1528 1530 1535 1544 1545 1540 1530 1517 1514 1512 1510 1510 1509 1508 1508 1508 1508 1507 1507 1507 1507 1507 1508 1509 1511 1512 1514 1516 1518 1520 1522 1524 1526 1527 1529 1531 1533
1522 1530 1530 1528 1526 1525 1525 1525 1526 1529 1531 1535 1529 1525 1516 1513 1511 1509 1509 1508 1507 1506 1506 1506 1505 1505 1505 1505 1505 1506 1507 1509 1510 1512 1513 1515 1518 1520 1522 1524 1525 1527 1529 1531
1523 1528 1529 1528 1524 1524 1523 1521 1521 1522 1523 1523 1521 1519 1511 1510 1509 1508 1507 1506 1506 1505 1504 1504 1503 1503 1503 1503 1503 1504 1505 1506 1508 1509 1511 1513 1515 1517 1519 1521 1523 1525 1527 1528
1525 1528 1532 1534 1527 1524 1525 1516 1516 1516 1515 1517 1518 1513 1508 1508 1506 1505 1504 1503 1503 1502 1502 1501 1501 1500 1500 1501 1501 1502 1503 1504 1506 1507 1509 1511 1513 1515 1517 1519 1521 1523 1524 1526
1523 1528 1533 1535 1531 1533 1518 1508 1507 1510 1509 1509 1507 1505 1505 1504 1502 1502 1502 1501 1500 1500 1499 1498 1498 1497 1497 1498 1498 1500 1501 1502 1503 1505 1507 1508 1510 1512 1514 1516 1518 1520 1522 1524
1517 1524 1533 1536 1534 1526 1513 1507 1506 1508 1507 1504 1504 1502 1502 1501 1501 1500 1499 1499 1498 1497 1496 1496 1495 1495 1495 1495 1495 1497 1498 1499 1501 1502 1504 1506 1507 1509 1511 1514 1516 1518 1519 1521
1518 1521 1529 1533 1531 1527 1512 1503 1502 1505 1508 1501 1501 1500 1500 1500 1503 1499 1496 1496 1495 1494 1493 1493 1492 1492 1492 1492 1493 1493 1495 1496 1498 1500 1502 1503 1505 1507 1509 1511 1513 1515 1517 1519
1522 1525 1528 1529 1527 1518 1505 1501 1502 1512 1507 1499 1498 1498 1498 1497 1497 1495 1493 1492 1492 1491 1490 1489 1488 1488 1488 1489 1490 1490 1491 1493 1495 1497 1499 1501 1502 1504 1506 1508 1511 1513 1515 1517
1519 1523 1525 1526 1525 1518 1501 1501 1504 1502 1498 1497 1496 1495 1495 1493 1492 1491 1490 1489 1488 1487 1486 1486 1485 1484 1485 1486 1487 1487 1488 1490 1492 1494 1496 1498 1500 1502 1504 1506 1508 1510 1512 1514
1513 1513 1513 1513 1510 1501 1499 1499 1498 1497 1496 1495 1494 1493 1492 1490 1488 1487 1486 1486 1485 1484 1483 1482 1481 1481 1481 1482 1483 1484 1485 1487 1489 1491 1493 1495 1497 1499 1501 1503 1505 1507 1509 1510
1508 1506 1507 1507 1501 1498 1496 1496 1495 1494 1493 1492 1491 1490 1489 1487 1485 1484 1483 1482 1481 1480 1479 1478 1478 1478 1478 1478 1479 1480 1482 1484 1486 1487 1489 1492 1494 1496 1498 1500 1501 1503 1505 1506
1504 1504 1504 1502 1498 1495 1493 1493 1492 1491 1489 1488 1487 1486 1485 1483 1481 1480 1479 1477 1477 1476 1476 1475 1474 1474 1474 1475 1476 1477 1478 1480 1482 1484 1486 1488 1490 1492 1494 1496 1498 1499 1501 1503
1499 1500 1500 1497 1493 1492 1490 1489 1489 1487 1485 1484 1483 1481 1481 1479 1478 1476 1475 1474 1473 1472 1472 1471 1470 1470 1471 1471 1472 1473 1475 1476 1478 1479 1481 1484 1486 1488 1490 1492 1494 1496 1498 1500